Language: 


Des rapports , des résumés tant et plus, au choix de chacun....


Données statistiques de la station
Quotidien Rapport Octobre 10, 2017 Unités:  Métrique    Anglais   les deux
« Précédent Jour
Suivant Jour »
Quotidien Hebdomadaire Mensuel Annuel Actuel
  Haut: Bas: Moyen:
Température: 19.1 °C 0.0 °C 11.5 °C
Pt de rosée: 16.0 °C 13.0 °C 13.6 °C
Humidité: 98 % 0 % 65 %
Vitesse du vent: 26.2 km/h 0.0 km/h 8.5 km/h
Rafales: 32.8 km/h - -
Vent:- - WSW
Pression: 1016.8 hPa 1014.1 hPa -
Précipitation: 0.3 mm    
Historical Graphs
 
 
Données statistiques pour Octobre 10, 2017
Heure Température Point de rosée Pression Vent Vitesse du vent Refales Humidité Pluie (taux horaire)
00:00 13.7 °C 13.0 °C 1016.8 hPa WSW 5.5 km/h 11.9 km/h 95 % 0.0 mm
00:05 13.7 °C 13.0 °C 1016.8 hPa WSW 5.0 km/h 11.1 km/h 95 % 0.0 mm
00:10 13.7 °C 13.0 °C 1016.8 hPa South 6.9 km/h 11.1 km/h 95 % 0.0 mm
00:15 13.7 °C 13.0 °C 1016.8 hPa SSW 4.0 km/h 10.1 km/h 95 % 0.0 mm
00:20 13.7 °C 13.0 °C 1016.8 hPa WSW 4.3 km/h 10.1 km/h 95 % 0.0 mm
00:21 13.7 °C 13.0 °C 1016.8 hPa SSW 7.9 km/h 10.1 km/h 95 % 0.0 mm
00:26 13.7 °C 13.0 °C 1016.8 hPa Calm   9.0 km/h 95 % 0.0 mm
00:31 13.7 °C 13.0 °C 1016.8 hPa Calm   9.0 km/h 95 % 0.0 mm
00:36 13.7 °C 13.0 °C 1016.8 hPa SW 6.9 km/h 9.7 km/h 95 % 0.0 mm
00:41 13.7 °C 13.0 °C 1016.8 hPa SW 7.9 km/h 9.7 km/h 95 % 0.0 mm
00:46 13.7 °C 13.0 °C 1016.1 hPa SSW 6.4 km/h 9.0 km/h 95 % 0.0 mm
00:51 13.7 °C 13.0 °C 1016.1 hPa Calm   9.0 km/h 95 % 0.0 mm
00:56 13.7 °C 13.0 °C 1016.1 hPa SSW 9.0 km/h 9.3 km/h 95 % 0.0 mm
01:01 13.7 °C 13.0 °C 1016.1 hPa SSW 1.4 km/h 9.3 km/h 95 % 0.0 mm
01:06 13.7 °C 13.0 °C 1016.1 hPa SW 5.8 km/h 11.6 km/h 95 % 0.0 mm
01:11 13.7 °C 13.0 °C 1016.1 hPa Calm   11.6 km/h 95 % 0.0 mm
01:16 13.7 °C 13.0 °C 1016.1 hPa SW 6.4 km/h 11.6 km/h 95 % 0.0 mm
01:21 13.7 °C 13.0 °C 1016.1 hPa SW 6.1 km/h 11.6 km/h 95 % 0.0 mm
01:26 13.7 °C 13.0 °C 1016.1 hPa SSW 7.9 km/h 10.1 km/h 95 % 0.0 mm
01:31 13.7 °C 13.0 °C 1015.1 hPa Calm   10.1 km/h 95 % 0.0 mm
01:36 13.7 °C 13.0 °C 1015.1 hPa WSW 6.9 km/h 9.7 km/h 95 % 0.0 mm
01:41 13.7 °C 13.0 °C 1015.1 hPa SW 7.2 km/h 13.0 km/h 95 % 0.0 mm
01:47 13.7 °C 13.0 °C 1015.1 hPa WSW 6.9 km/h 13.0 km/h 95 % 0.0 mm
01:52 13.7 °C 13.0 °C 1015.1 hPa SW 6.9 km/h 12.6 km/h 95 % 0.0 mm
01:57 13.7 °C 13.0 °C 1015.1 hPa WSW 4.3 km/h 10.5 km/h 95 % 0.0 mm
02:02 13.7 °C 13.0 °C 1016.1 hPa SW 7.6 km/h 10.5 km/h 95 % 0.0 mm
02:07 13.7 °C 13.0 °C 1016.1 hPa WSW 6.4 km/h 11.9 km/h 95 % 0.0 mm
02:12 13.7 °C 13.0 °C 1016.1 hPa SW 6.9 km/h 11.9 km/h 95 % 0.0 mm
02:17 13.7 °C 13.0 °C 1016.1 hPa SW 6.4 km/h 9.0 km/h 95 % 0.0 mm
02:22 13.7 °C 13.0 °C 1016.1 hPa WSW 9.3 km/h 9.3 km/h 95 % 0.0 mm
02:27 13.7 °C 13.0 °C 1016.1 hPa SW 5.5 km/h 9.3 km/h 95 % 0.0 mm
02:32 13.7 °C 13.0 °C 1015.1 hPa WSW 1.8 km/h 9.3 km/h 95 % 0.0 mm
02:37 13.7 °C 13.0 °C 1015.1 hPa Calm   8.7 km/h 95 % 0.0 mm
02:42 13.7 °C 13.0 °C 1015.1 hPa Calm   7.9 km/h 95 % 0.0 mm
02:47 13.7 °C 13.0 °C 1016.1 hPa Calm   5.5 km/h 95 % 0.0 mm
02:52 13.7 °C 13.0 °C 1016.1 hPa Calm   5.8 km/h 95 % 0.0 mm
02:57 13.7 °C 13.0 °C 1016.1 hPa Calm   7.9 km/h 95 % 0.0 mm
03:02 0.0 °C 13.0 °C 1016.1 hPa SSW 5.8 km/h 7.9 km/h 0 % 0.0 mm
03:07 0.0 °C 13.0 °C 1016.1 hPa SW 4.3 km/h 9.0 km/h 0 % 0.0 mm
03:13 0.0 °C 13.0 °C 1016.1 hPa Calm   9.0 km/h 0 % 0.0 mm
03:18 0.0 °C 13.0 °C 1015.1 hPa Calm   6.4 km/h 0 % 0.0 mm
03:23 0.0 °C 13.0 °C 1015.1 hPa Calm   6.4 km/h 0 % 0.0 mm
03:28 0.0 °C 13.0 °C 1015.1 hPa Calm   9.7 km/h 0 % 0.0 mm
03:33 0.0 °C 13.0 °C 1015.1 hPa Calm   9.7 km/h 0 % 0.0 mm
03:38 0.0 °C 13.0 °C 1015.1 hPa Calm   6.1 km/h 0 % 0.0 mm
03:43 0.0 °C 13.0 °C 1015.1 hPa Calm   6.4 km/h 0 % 0.0 mm
03:48 0.0 °C 13.0 °C 1015.1 hPa WSW 7.9 km/h 7.9 km/h 0 % 0.0 mm
03:53 0.0 °C 13.0 °C 1015.1 hPa WSW 3.5 km/h 7.9 km/h 0 % 0.0 mm
03:58 0.0 °C 13.0 °C 1015.1 hPa Calm   8.7 km/h 0 % 0.0 mm
04:03 0.0 °C 13.0 °C 1015.1 hPa WSW 8.7 km/h 9.3 km/h 0 % 0.0 mm
04:08 0.0 °C 13.0 °C 1015.1 hPa WSW 5.8 km/h 10.1 km/h 0 % 0.0 mm
04:13 0.0 °C 13.0 °C 1015.1 hPa WSW 9.3 km/h 10.1 km/h 0 % 0.0 mm
04:18 0.0 °C 13.0 °C 1015.1 hPa WSW 6.4 km/h 9.3 km/h 0 % 0.0 mm
04:23 0.0 °C 13.0 °C 1015.1 hPa West 8.7 km/h 10.1 km/h 0 % 0.0 mm
04:28 0.0 °C 13.0 °C 1015.1 hPa WSW 7.9 km/h 9.7 km/h 0 % 0.0 mm
04:33 0.0 °C 13.0 °C 1015.1 hPa West 9.7 km/h 12.2 km/h 0 % 0.0 mm
04:39 0.0 °C 13.0 °C 1015.1 hPa WSW 6.1 km/h 12.2 km/h 0 % 0.0 mm
04:44 0.0 °C 13.0 °C 1015.1 hPa Calm   9.3 km/h 0 % 0.0 mm
04:49 0.0 °C 13.0 °C 1015.1 hPa West 5.0 km/h 7.6 km/h 0 % 0.0 mm
04:54 0.0 °C 13.0 °C 1015.1 hPa Calm   7.6 km/h 0 % 0.0 mm
04:59 0.0 °C 13.0 °C 1015.1 hPa WSW 5.8 km/h 9.0 km/h 0 % 0.0 mm
05:04 0.0 °C 13.0 °C 1015.1 hPa West 6.9 km/h 9.7 km/h 0 % 0.0 mm
05:09 0.0 °C 13.0 °C 1015.1 hPa Calm   9.7 km/h 0 % 0.0 mm
05:15 0.0 °C 13.0 °C 1015.1 hPa Calm   7.9 km/h 0 % 0.0 mm
05:20 0.0 °C 13.0 °C 1015.1 hPa WSW 6.4 km/h 7.9 km/h 0 % 0.0 mm
05:23 0.0 °C 13.0 °C 1015.1 hPa WSW 6.4 km/h 6.9 km/h 0 % 0.0 mm
05:24 0.0 °C 13.0 °C 1015.1 hPa WSW 7.9 km/h 7.9 km/h 0 % 0.0 mm
05:29 0.0 °C 13.0 °C 1015.1 hPa WSW 6.1 km/h 8.7 km/h 0 % 0.0 mm
05:34 0.0 °C 13.0 °C 1015.1 hPa Calm   8.7 km/h 0 % 0.0 mm
05:39 0.0 °C 13.0 °C 1015.1 hPa WSW 8.7 km/h 9.0 km/h 0 % 0.0 mm
05:44 0.0 °C 13.0 °C 1015.1 hPa WSW 7.9 km/h 10.1 km/h 0 % 0.0 mm
05:49 0.0 °C 13.0 °C 1015.1 hPa WSW 1.4 km/h 10.1 km/h 0 % 0.0 mm
05:54 0.0 °C 13.0 °C 1015.1 hPa WSW 1.4 km/h 10.1 km/h 0 % 0.0 mm
05:59 0.0 °C 13.0 °C 1015.1 hPa Calm   10.1 km/h 0 % 0.0 mm
06:04 0.0 °C 13.0 °C 1015.1 hPa Calm   6.9 km/h 0 % 0.0 mm
06:10 0.0 °C 13.0 °C 1015.1 hPa Calm   1.4 km/h 0 % 0.0 mm
06:15 0.0 °C 13.0 °C 1015.1 hPa Calm     0 % 0.0 mm
06:20 0.0 °C 13.0 °C 1015.1 hPa Calm   5.0 km/h 0 % 0.0 mm
06:25 0.0 °C 13.0 °C 1015.1 hPa Calm   5.0 km/h 0 % 0.0 mm
06:30 0.0 °C 13.0 °C 1015.1 hPa WSW 7.6 km/h 9.0 km/h 0 % 0.0 mm
06:35 0.0 °C 13.0 °C 1015.1 hPa Calm   9.7 km/h 0 % 0.0 mm
06:40 0.0 °C 13.0 °C 1015.1 hPa WSW 7.9 km/h 9.7 km/h 0 % 0.0 mm
06:45 0.0 °C 13.0 °C 1015.1 hPa SW 7.9 km/h 9.7 km/h 0 % 0.0 mm
06:50 0.0 °C 13.0 °C 1015.1 hPa Calm   9.7 km/h 0 % 0.0 mm
06:55 0.0 °C 13.0 °C 1015.1 hPa Calm   7.9 km/h 0 % 0.0 mm
07:00 0.0 °C 13.0 °C 1014.1 hPa WSW 5.0 km/h 5.0 km/h 0 % 0.0 mm
07:05 0.0 °C 13.0 °C 1014.1 hPa Calm   5.0 km/h 0 % 0.0 mm
07:10 0.0 °C 13.0 °C 1014.1 hPa Calm   4.3 km/h 0 % 0.0 mm
07:12 0.0 °C 13.0 °C 1014.1 hPa Calm     0 % 0.0 mm
07:17 0.0 °C 13.0 °C 1015.1 hPa Calm     0 % 0.0 mm
07:22 0.0 °C 13.0 °C 1015.1 hPa Calm     0 % 0.0 mm
07:27 0.0 °C 13.0 °C 1015.1 hPa Calm     0 % 0.0 mm
07:32 0.0 °C 13.0 °C 1015.1 hPa Calm     0 % 0.0 mm
07:37 0.0 °C 13.0 °C 1015.1 hPa Calm     0 % 0.0 mm
07:42 0.0 °C 13.0 °C 1015.1 hPa SSW 1.8 km/h 1.8 km/h 0 % 0.0 mm
07:47 0.0 °C 13.0 °C 1014.1 hPa Calm   1.8 km/h 0 % 0.0 mm
07:52 0.0 °C 13.0 °C 1014.1 hPa Calm   3.5 km/h 0 % 0.0 mm
07:57 0.0 °C 13.0 °C 1014.1 hPa Calm   3.5 km/h 0 % 0.0 mm
08:02 0.0 °C 13.0 °C 1015.1 hPa SW 6.1 km/h 6.1 km/h 0 % 0.0 mm
08:07 0.0 °C 13.0 °C 1015.1 hPa SSW 5.8 km/h 6.1 km/h 0 % 0.0 mm
08:12 0.0 °C 13.0 °C 1015.1 hPa SSW 3.5 km/h 6.1 km/h 0 % 0.0 mm
08:17 0.0 °C 13.0 °C 1015.1 hPa Calm   6.1 km/h 0 % 0.0 mm
08:23 0.0 °C 13.0 °C 1015.1 hPa Calm   4.7 km/h 0 % 0.0 mm
08:28 0.0 °C 13.0 °C 1015.1 hPa Calm   7.9 km/h 0 % 0.0 mm
08:33 0.0 °C 13.0 °C 1015.1 hPa Calm   9.0 km/h 0 % 0.0 mm
08:38 0.0 °C 13.0 °C 1015.1 hPa Calm   9.3 km/h 0 % 0.0 mm
08:43 0.0 °C 13.0 °C 1015.1 hPa SW 6.4 km/h 10.5 km/h 0 % 0.0 mm
08:48 0.0 °C 13.0 °C 1015.1 hPa SSW 5.0 km/h 10.5 km/h 0 % 0.0 mm
08:53 0.0 °C 13.0 °C 1015.1 hPa SSW 6.9 km/h 10.5 km/h 0 % 0.0 mm
08:58 0.0 °C 13.0 °C 1015.1 hPa South 4.7 km/h 10.1 km/h 0 % 0.0 mm
09:08 0.0 °C 13.0 °C 1016.1 hPa SW 5.5 km/h 10.5 km/h 0 % 0.0 mm
09:13 0.0 °C 13.0 °C 1016.1 hPa Calm   10.5 km/h 0 % 0.0 mm
09:18 13.8 °C 14.0 °C 1016.1 hPa SW 8.7 km/h 12.2 km/h 98 % 0.0 mm
09:23 13.8 °C 13.0 °C 1016.1 hPa SSW 6.1 km/h 12.2 km/h 97 % 0.0 mm
09:28 13.8 °C 13.0 °C 1016.1 hPa South 4.7 km/h 9.7 km/h 97 % 0.0 mm
09:33 13.8 °C 13.0 °C 1016.1 hPa Calm   10.8 km/h 97 % 0.0 mm
09:38 14.0 °C 14.0 °C 1016.1 hPa SW 5.8 km/h 10.8 km/h 97 % 0.0 mm
09:43 14.0 °C 14.0 °C 1016.1 hPa SSW 7.6 km/h 10.5 km/h 96 % 0.0 mm
09:49 14.0 °C 14.0 °C 1016.1 hPa South 8.7 km/h 10.5 km/h 96 % 0.0 mm
09:54 14.0 °C 14.0 °C 1016.1 hPa SSW 5.8 km/h 10.1 km/h 96 % 0.0 mm
09:59 14.0 °C 14.0 °C 1016.1 hPa SW 8.7 km/h 10.1 km/h 96 % 0.0 mm
10:04 14.0 °C 14.0 °C 1016.1 hPa Calm   9.0 km/h 96 % 0.0 mm
10:09 14.6 °C 14.0 °C 1016.1 hPa Calm   9.0 km/h 96 % 0.0 mm
10:14 14.7 °C 14.0 °C 1016.1 hPa SW 9.0 km/h 10.1 km/h 96 % 0.0 mm
10:19 14.8 °C 14.0 °C 1016.8 hPa WSW 7.9 km/h 11.1 km/h 96 % 0.0 mm
10:24 14.8 °C 14.0 °C 1016.8 hPa WSW 8.7 km/h 11.1 km/h 96 % 0.0 mm
10:29 14.8 °C 14.0 °C 1016.8 hPa SW 6.4 km/h 9.3 km/h 96 % 0.0 mm
10:34 14.7 °C 14.0 °C 1016.8 hPa SW 11.6 km/h 11.6 km/h 95 % 0.0 mm
10:39 14.7 °C 14.0 °C 1016.8 hPa SW 6.1 km/h 11.6 km/h 95 % 0.0 mm
10:44 14.7 °C 14.0 °C 1016.8 hPa WSW 3.2 km/h 11.6 km/h 95 % 0.0 mm
10:54 14.7 °C 14.0 °C 1016.8 hPa Calm   9.7 km/h 95 % 0.3 mm
10:59 14.7 °C 14.0 °C 1016.8 hPa Calm   9.7 km/h 95 % 0.3 mm
11:04 14.7 °C 14.0 °C 1016.8 hPa WSW 5.5 km/h 7.9 km/h 95 % 0.3 mm
11:09 15.2 °C 15.0 °C 1016.8 hPa WSW 5.8 km/h 9.0 km/h 95 % 0.3 mm
11:14 15.4 °C 15.0 °C 1016.8 hPa WSW 6.9 km/h 10.5 km/h 96 % 0.3 mm
11:19 15.4 °C 15.0 °C 1016.8 hPa SW 4.3 km/h 11.6 km/h 96 % 0.3 mm
11:24 16.0 °C 15.0 °C 1016.8 hPa SSW 9.7 km/h 11.6 km/h 95 % 0.3 mm
11:25 16.0 °C 15.0 °C 1016.8 hPa West 6.1 km/h 11.6 km/h 95 % 0.3 mm
11:30 16.1 °C 15.0 °C 1016.8 hPa WSW 6.9 km/h 15.4 km/h 94 % 0.3 mm
11:35 16.3 °C 15.0 °C 1016.1 hPa Calm   15.4 km/h 94 % 0.3 mm
11:40 16.3 °C 15.0 °C 1016.1 hPa SW 5.8 km/h 14.0 km/h 94 % 0.3 mm
11:45 16.3 °C 15.0 °C 1016.1 hPa WSW 5.8 km/h 14.0 km/h 94 % 0.3 mm
11:50 17.0 °C 16.0 °C 1016.8 hPa WSW 8.7 km/h 14.0 km/h 92 % 0.3 mm
11:55 17.0 °C 16.0 °C 1016.8 hPa WSW 10.5 km/h 14.0 km/h 91 % 0.0 mm
12:00 17.0 °C 16.0 °C 1016.8 hPa WSW 11.9 km/h 13.7 km/h 91 % 0.0 mm
12:05 17.1 °C 16.0 °C 1016.8 hPa WSW 6.4 km/h 13.7 km/h 91 % 0.0 mm
12:10 17.1 °C 16.0 °C 1016.8 hPa WSW 8.7 km/h 14.0 km/h 91 % 0.0 mm
12:15 17.1 °C 16.0 °C 1016.8 hPa SW 12.2 km/h 16.9 km/h 91 % 0.0 mm
12:20 17.1 °C 16.0 °C 1016.8 hPa WSW 15.4 km/h 16.9 km/h 91 % 0.0 mm
12:25 17.2 °C 15.0 °C 1016.8 hPa WSW 9.0 km/h 20.9 km/h 88 % 0.0 mm
12:30 17.2 °C 15.0 °C 1016.8 hPa WSW 11.1 km/h 20.9 km/h 87 % 0.0 mm
12:35 17.1 °C 15.0 °C 1016.8 hPa WSW 13.0 km/h 20.1 km/h 87 % 0.0 mm
12:40 17.2 °C 15.0 °C 1016.8 hPa WSW 14.0 km/h 20.1 km/h 88 % 0.0 mm
12:45 17.3 °C 15.0 °C 1016.8 hPa WSW 21.2 km/h 21.2 km/h 87 % 0.0 mm
12:50 17.3 °C 15.0 °C 1016.8 hPa WSW 19.8 km/h 21.2 km/h 87 % 0.0 mm
12:55 17.6 °C 15.0 °C 1016.8 hPa WSW 12.2 km/h 21.2 km/h 85 % 0.0 mm
13:00 17.6 °C 15.0 °C 1016.8 hPa West 18.0 km/h 24.8 km/h 83 % 0.0 mm
13:06 17.7 °C 15.0 °C 1016.8 hPa West 16.3 km/h 24.8 km/h 83 % 0.0 mm
13:11 18.0 °C 15.0 °C 1016.8 hPa WSW 12.2 km/h 24.5 km/h 84 % 0.0 mm
13:16 18.3 °C 16.0 °C 1016.8 hPa West 11.9 km/h 21.2 km/h 84 % 0.0 mm
13:21 18.3 °C 15.0 °C 1016.8 hPa WSW 19.5 km/h 24.8 km/h 81 % 0.0 mm
13:26 18.0 °C 15.0 °C 1016.8 hPa West 21.2 km/h 24.8 km/h 80 % 0.0 mm
13:31 17.7 °C 14.0 °C 1016.8 hPa SW 20.9 km/h 25.3 km/h 81 % 0.0 mm
13:36 18.0 °C 15.0 °C 1016.8 hPa West 16.6 km/h 25.3 km/h 81 % 0.0 mm
13:41 18.8 °C 16.0 °C 1016.8 hPa West 14.0 km/h 22.4 km/h 82 % 0.0 mm
13:46 18.9 °C 15.0 °C 1016.8 hPa WSW 14.0 km/h 23.8 km/h 78 % 0.0 mm
13:51 19.1 °C 15.0 °C 1016.8 hPa West 18.0 km/h 27.4 km/h 77 % 0.0 mm
13:56 18.6 °C 14.0 °C 1016.8 hPa West 17.2 km/h 27.4 km/h 76 % 0.0 mm
14:01 18.5 °C 14.0 °C 1016.8 hPa West 13.7 km/h 27.4 km/h 75 % 0.0 mm
14:06 18.2 °C 14.0 °C 1016.8 hPa West 17.2 km/h 27.4 km/h 75 % 0.0 mm
14:11 18.2 °C 14.0 °C 1016.8 hPa West 15.1 km/h 25.3 km/h 76 % 0.0 mm
14:16 18.5 °C 15.0 °C 1016.8 hPa West 23.3 km/h 24.8 km/h 77 % 0.0 mm
14:21 18.4 °C 14.0 °C 1016.8 hPa WSW 9.0 km/h 23.3 km/h 77 % 0.0 mm
14:26 18.4 °C 14.0 °C 1016.8 hPa WSW 12.2 km/h 23.0 km/h 77 % 0.0 mm
14:31 18.1 °C 14.0 °C 1016.1 hPa WSW 21.2 km/h 23.0 km/h 76 % 0.0 mm
14:36 18.7 °C 14.0 °C 1016.1 hPa WSW 19.8 km/h 27.4 km/h 74 % 0.0 mm
14:41 18.6 °C 14.0 °C 1016.1 hPa WSW 13.0 km/h 27.4 km/h 74 % 0.0 mm
14:46 18.6 °C 14.0 °C 1016.1 hPa WNW 16.3 km/h 26.7 km/h 76 % 0.0 mm
14:51 18.4 °C 14.0 °C 1016.1 hPa WSW 21.6 km/h 27.7 km/h 74 % 0.0 mm
14:56 18.7 °C 14.0 °C 1016.1 hPa WSW 26.2 km/h 27.7 km/h 75 % 0.0 mm
15:01 18.5 °C 14.0 °C 1016.1 hPa West 15.8 km/h 26.2 km/h 75 % 0.0 mm
15:06 18.4 °C 14.0 °C 1016.1 hPa WSW 9.7 km/h 21.6 km/h 75 % 0.0 mm
15:12 18.5 °C 14.0 °C 1016.1 hPa WSW 24.5 km/h 27.0 km/h 75 % 0.0 mm
15:20 18.6 °C 14.0 °C 1016.1 hPa West 12.2 km/h 24.8 km/h 75 % 0.0 mm
15:25 18.8 °C 14.0 °C 1016.1 hPa West 18.0 km/h 24.8 km/h 75 % 0.0 mm
15:30 19.0 °C 14.0 °C 1016.1 hPa West 20.6 km/h 25.9 km/h 74 % 0.0 mm
15:35 18.4 °C 13.0 °C 1016.1 hPa West 21.2 km/h 27.0 km/h 73 % 0.0 mm
15:40 18.2 °C 14.0 °C 1016.1 hPa WSW 10.5 km/h 27.0 km/h 74 % 0.0 mm
15:45 18.2 °C 14.0 °C 1016.1 hPa West 17.2 km/h 24.8 km/h 74 % 0.0 mm
15:50 18.0 °C 14.0 °C 1016.1 hPa WSW 21.2 km/h 21.2 km/h 77 % 0.0 mm
15:55 17.9 °C 14.0 °C 1016.1 hPa WSW 9.7 km/h 21.2 km/h 78 % 0.0 mm
16:00 17.9 °C 14.0 °C 1016.1 hPa WSW 16.3 km/h 20.9 km/h 78 % 0.0 mm
16:15 17.5 °C 14.0 °C 1015.1 hPa WSW 16.6 km/h 23.8 km/h 81 % 0.0 mm
16:20 17.4 °C 14.0 °C 1015.1 hPa West 13.7 km/h 24.8 km/h 81 % 0.0 mm
16:25 17.4 °C 14.0 °C 1015.1 hPa SW 13.0 km/h 24.8 km/h 80 % 0.0 mm
16:30 17.4 °C 14.0 °C 1016.1 hPa WSW 12.2 km/h 21.6 km/h 80 % 0.0 mm
16:36 17.3 °C 14.0 °C 1016.1 hPa West 13.7 km/h 26.7 km/h 80 % 0.0 mm
16:41 17.3 °C 14.0 °C 1016.1 hPa WSW 17.2 km/h 26.7 km/h 80 % 0.0 mm
16:46 17.3 °C 14.0 °C 1016.1 hPa West 19.8 km/h 21.6 km/h 80 % 0.0 mm
16:51 17.2 °C 14.0 °C 1016.1 hPa SW 12.2 km/h 23.0 km/h 80 % 0.0 mm
16:56 17.1 °C 14.0 °C 1016.1 hPa WSW 19.1 km/h 23.0 km/h 81 % 0.0 mm
17:01 17.1 °C 14.0 °C 1016.1 hPa West 12.2 km/h 20.1 km/h 82 % 0.0 mm
17:06 17.1 °C 14.0 °C 1016.1 hPa WSW 15.4 km/h 20.1 km/h 82 % 0.0 mm
17:11 17.0 °C 14.0 °C 1016.1 hPa West 14.0 km/h 22.4 km/h 81 % 0.0 mm
17:16 16.9 °C 14.0 °C 1016.1 hPa WSW 13.7 km/h 22.4 km/h 82 % 0.0 mm
17:21 16.8 °C 14.0 °C 1016.1 hPa WSW 11.9 km/h 17.7 km/h 83 % 0.0 mm
17:26 16.7 °C 14.0 °C 1016.1 hPa WSW 12.6 km/h 17.7 km/h 83 % 0.0 mm
17:31 16.6 °C 14.0 °C 1016.1 hPa WSW 15.1 km/h 17.7 km/h 83 % 0.0 mm
17:36 16.6 °C 14.0 °C 1016.1 hPa WSW 12.2 km/h 21.2 km/h 83 % 0.0 mm
17:41 16.6 °C 14.0 °C 1016.1 hPa West 9.0 km/h 21.2 km/h 84 % 0.0 mm
17:46 16.6 °C 14.0 °C 1016.1 hPa West 10.5 km/h 19.8 km/h 84 % 0.0 mm
17:51 16.6 °C 14.0 °C 1016.1 hPa WSW 14.3 km/h 24.5 km/h 84 % 0.0 mm
17:56 16.5 °C 14.0 °C 1016.1 hPa WSW 11.9 km/h 24.5 km/h 83 % 0.0 mm
18:01 16.5 °C 14.0 °C 1016.8 hPa West 17.7 km/h 23.3 km/h 83 % 0.0 mm
18:06 16.5 °C 14.0 °C 1016.8 hPa WSW 13.0 km/h 23.8 km/h 83 % 0.0 mm
18:11 16.5 °C 14.0 °C 1016.8 hPa WSW 13.0 km/h 23.8 km/h 83 % 0.0 mm
18:16 16.5 °C 14.0 °C 1016.1 hPa WSW 13.0 km/h 21.9 km/h 83 % 0.0 mm
18:21 16.3 °C 13.0 °C 1016.1 hPa West 12.6 km/h 21.9 km/h 83 % 0.0 mm
18:26 16.2 °C 13.0 °C 1016.1 hPa WSW 10.1 km/h 16.6 km/h 83 % 0.0 mm
18:31 16.2 °C 13.0 °C 1016.8 hPa WSW 14.0 km/h 14.8 km/h 83 % 0.0 mm
18:36 16.1 °C 13.0 °C 1016.8 hPa SW 9.7 km/h 14.8 km/h 83 % 0.0 mm
18:41 16.1 °C 13.0 °C 1016.8 hPa West 14.0 km/h 14.0 km/h 84 % 0.0 mm
18:46 16.1 °C 13.0 °C 1016.8 hPa WSW 19.8 km/h 19.8 km/h 84 % 0.0 mm
18:51 16.1 °C 13.0 °C 1016.8 hPa West 16.6 km/h 23.0 km/h 84 % 0.0 mm
18:56 15.9 °C 13.0 °C 1016.8 hPa WSW 11.6 km/h 23.0 km/h 84 % 0.0 mm
19:02 15.8 °C 13.0 °C 1016.8 hPa WSW 17.2 km/h 21.9 km/h 85 % 0.0 mm
19:07 15.6 °C 14.0 °C 1016.8 hPa WSW 20.1 km/h 32.8 km/h 87 % 0.0 mm
19:12 15.4 °C 14.0 °C 1016.8 hPa WSW 11.9 km/h 32.8 km/h 89 % 0.0 mm
19:17 15.4 °C 14.0 °C 1016.8 hPa WSW 12.6 km/h 21.6 km/h 89 % 0.0 mm
19:22 15.2 °C 14.0 °C 1016.8 hPa WSW 13.7 km/h 21.6 km/h 90 % 0.0 mm
19:27 15.2 °C 14.0 °C 1016.8 hPa SSW 8.7 km/h 16.3 km/h 90 % 0.0 mm
19:32 15.1 °C 14.0 °C 1016.8 hPa SW 7.9 km/h 17.2 km/h 91 % 0.0 mm
19:37 15.1 °C 14.0 °C 1016.8 hPa WSW 16.3 km/h 17.2 km/h 91 % 0.0 mm
19:42 15.1 °C 14.0 °C 1016.8 hPa WSW 6.9 km/h 16.6 km/h 91 % 0.0 mm
19:47 15.0 °C 14.0 °C 1016.8 hPa SW 13.7 km/h 16.6 km/h 91 % 0.0 mm
19:52 14.9 °C 14.0 °C 1016.8 hPa SSW 12.6 km/h 16.9 km/h 92 % 0.0 mm
19:57 14.9 °C 14.0 °C 1016.8 hPa SSW 9.3 km/h 16.9 km/h 93 % 0.0 mm
20:02 14.9 °C 14.0 °C 1016.1 hPa WSW 12.2 km/h 16.6 km/h 93 % 0.0 mm
20:07 14.9 °C 14.0 °C 1016.1 hPa WSW 10.5 km/h 16.3 km/h 93 % 0.0 mm
20:12 14.9 °C 14.0 °C 1016.1 hPa SW 10.5 km/h 12.2 km/h 93 % 0.0 mm
20:17 14.9 °C 14.0 °C 1016.8 hPa SW 12.2 km/h 12.2 km/h 93 % 0.0 mm
20:22 14.8 °C 14.0 °C 1016.8 hPa SW 9.0 km/h 13.7 km/h 93 % 0.0 mm
20:27 14.8 °C 14.0 °C 1016.8 hPa SW 9.3 km/h 13.7 km/h 93 % 0.0 mm
20:32 14.8 °C 14.0 °C 1016.1 hPa SW 9.7 km/h 16.9 km/h 93 % 0.0 mm
20:42 14.8 °C 13.0 °C 1016.1 hPa SW 11.9 km/h 15.8 km/h 92 % 0.0 mm
20:47 14.8 °C 13.0 °C 1016.1 hPa WSW 13.0 km/h 17.2 km/h 92 % 0.0 mm
20:52 14.8 °C 13.0 °C 1016.1 hPa SSW 13.0 km/h 17.2 km/h 92 % 0.0 mm
20:57 14.8 °C 13.0 °C 1016.1 hPa WSW 13.0 km/h 17.2 km/h 92 % 0.0 mm
21:02 14.8 °C 13.0 °C 1016.8 hPa SW 9.0 km/h 14.0 km/h 92 % 0.0 mm
21:08 14.8 °C 13.0 °C 1016.8 hPa SW 9.3 km/h 15.4 km/h 92 % 0.0 mm
21:13 14.8 °C 13.0 °C 1016.8 hPa WSW 11.9 km/h 16.6 km/h 92 % 0.0 mm
21:18 14.8 °C 13.0 °C 1016.8 hPa SSW 12.6 km/h 16.6 km/h 92 % 0.0 mm
21:23 14.7 °C 13.0 °C 1016.8 hPa SW 6.9 km/h 16.3 km/h 92 % 0.0 mm
21:28 14.7 °C 13.0 °C 1016.8 hPa SSW 10.1 km/h 13.0 km/h 92 % 0.0 mm
21:33 14.7 °C 13.0 °C 1016.1 hPa WSW 8.7 km/h 13.0 km/h 92 % 0.0 mm
21:38 14.6 °C 13.0 °C 1016.1 hPa SSW 9.7 km/h 16.9 km/h 92 % 0.0 mm
21:43 14.6 °C 13.0 °C 1016.1 hPa WSW 8.7 km/h 16.9 km/h 92 % 0.0 mm
21:48 14.5 °C 13.0 °C 1016.8 hPa WSW 8.7 km/h 13.7 km/h 92 % 0.0 mm
21:53 14.5 °C 13.0 °C 1016.8 hPa South 6.4 km/h 13.7 km/h 92 % 0.0 mm
21:58 14.5 °C 13.0 °C 1016.8 hPa SW 13.0 km/h 13.7 km/h 92 % 0.0 mm
22:03 14.4 °C 13.0 °C 1016.8 hPa South 6.1 km/h 13.7 km/h 92 % 0.0 mm
22:08 14.4 °C 13.0 °C 1016.8 hPa SSW 9.3 km/h 13.0 km/h 92 % 0.0 mm
22:13 14.4 °C 13.0 °C 1016.8 hPa WSW 8.7 km/h 13.0 km/h 92 % 0.0 mm
22:18 14.4 °C 13.0 °C 1016.1 hPa WSW 7.6 km/h 11.9 km/h 92 % 0.0 mm
22:23 14.4 °C 13.0 °C 1016.1 hPa SW 13.7 km/h 13.7 km/h 93 % 0.0 mm
22:29 14.3 °C 13.0 °C 1016.1 hPa SW 7.9 km/h 13.7 km/h 93 % 0.0 mm
22:34 14.3 °C 13.0 °C 1016.8 hPa SSW 10.1 km/h 10.1 km/h 93 % 0.0 mm
22:39 14.3 °C 13.0 °C 1016.8 hPa SSW 7.2 km/h 13.0 km/h 93 % 0.0 mm
22:44 14.4 °C 13.0 °C 1016.8 hPa SW 12.6 km/h 13.0 km/h 93 % 0.0 mm
22:49 14.4 °C 13.0 °C 1016.8 hPa SSW 11.9 km/h 12.6 km/h 93 % 0.0 mm
22:54 14.4 °C 13.0 °C 1016.8 hPa WSW 10.1 km/h 12.2 km/h 93 % 0.0 mm
22:59 14.4 °C 13.0 °C 1016.8 hPa SSW 10.1 km/h 14.0 km/h 93 % 0.0 mm
23:04 14.4 °C 13.0 °C 1016.8 hPa WSW 7.9 km/h 14.0 km/h 93 % 0.0 mm
23:09 14.4 °C 13.0 °C 1016.8 hPa WSW 12.2 km/h 13.7 km/h 93 % 0.0 mm
23:14 14.3 °C 13.0 °C 1016.8 hPa WSW 5.8 km/h 13.7 km/h 93 % 0.0 mm
23:19 14.2 °C 13.0 °C 1016.1 hPa SSW 6.4 km/h 13.7 km/h 93 % 0.0 mm
23:24 14.2 °C 13.0 °C 1016.1 hPa SW 9.0 km/h 13.7 km/h 93 % 0.0 mm
23:34 14.1 °C 13.0 °C 1016.8 hPa SSW 8.7 km/h 13.7 km/h 93 % 0.0 mm
23:39 14.0 °C 13.0 °C 1016.8 hPa WSW 12.2 km/h 12.2 km/h 93 % 0.0 mm
23:44 14.0 °C 13.0 °C 1016.8 hPa WSW 7.9 km/h 12.2 km/h 93 % 0.0 mm
23:49 14.2 °C 13.0 °C 1016.8 hPa SW 7.6 km/h 12.2 km/h 94 % 0.0 mm
23:54 14.2 °C 13.0 °C 1016.8 hPa SSW 7.9 km/h 11.9 km/h 94 % 0.0 mm
23:59 14.2 °C 13.0 °C 1016.8 hPa WSW 11.1 km/h 12.6 km/h 94 % 0.0 mm
Le Gheer Warneton
Courtoisie de Weather Underground - 2.25 mb

Mise a jour : 17-12-17 07:17:12
Généré par Cumulus 1.9.4 (1099)